Location: Newark
(43.0658°N, 122.2322°W)
Time: 17:47:30
(UTC+00:00)

STARLINK-1651 - Pass Details

Date: 21 September 2020
Orbit: 379 x 381 km, 53.0° (Epoch: 28 October)

Event Time Altitude Azimuth Distance (km) Brightness Sun altitude
Exits shadow 12:01:39 16° 345° (NNW) 1,161 5.3 -21.2°
Maximum altitude 12:01:54 16° 350° (N) 1,157 5.4 -21.1°
Drops below altitude 10° 12:04:06 10° 32° (NNE) 1,484 6.6 -20.7°
Sets 12:06:46 0° 55° (NE) 2,347 8.3 -20.3°
